Thief River Falls, MN

8:39 PM CST on January 16, 2017 (GMT -0600)
Thief River Falls Regional

Weather History for KTVF - December, 2012

Change the Weather History Date:

Saturday, December 15, 2012

  Actual Average Record
Temperature  
Mean Temperature 18 °F -  
Max Temperature 24 °F 19 °F 35 °F (1997)
Min Temperature 12 °F 6 °F -25 °F (2013)
Degree Days  
Heating Degree Days 47    
Moisture  
Dew Point 15 °F    
Average Humidity 92    
Maximum Humidity 100    
Minimum Humidity 86    
Precipitation  
Precipitation 0.00 in - - ()
Sea Level Pressure  
Sea Level Pressure 29.68 in    
Wind  
Wind Speed 7 mph (North)    
Max Wind Speed 15 mph    
Max Gust Speed -    
Visibility 6 miles    
Events      
Averages and records for this station are not official NWS values.
T = Trace of Precipitation, MM = Missing Value Source: NWS Daily Summary

Daily Weather History Graph

Daily Weather History Graph

Search for Another Location

Airport or City:

Trip Planner

Search our weather history database for the weather conditions in past years. The results will help you decide how hot, cold, wet, or windy it might be!

Date:

Astronomy

Dec. 15, 2012 Rise Set
Actual Time 8:08 AM CST 4:31 PM CST
Civil Twilight 7:32 AM CST 5:08 PM CST
Nautical Twilight 6:52 AM CST 5:47 PM CST
Astronomical Twilight 6:14 AM CST 6:25 PM CST
Moon 9:53 AM CST (12/15) 7:47 PM CST (12/15)
Length of Visible Light 9h 36m
Length of Day
8h 23m
Waxing Crescent, 8% of the Moon is Illuminated
Dec 15
Waxing Crescent
Dec 19
First Quarter
Dec 28
Full
Jan 4
Last Quarter
Jan 11
New

Hourly Weather History & Observations

Time (CST) Temp. Windchill Dew Point Humidity Pressure Visibility Wind Dir Wind Speed Gust Speed Precip Events Conditions
12:15 AM 19.4 °F 12.8 °F 17.6 °F 93% 29.76 in 8.0 mi NE 4.6 mph - N/A   Clear
12:35 AM 19.4 °F 11.5 °F 17.6 °F 93% 29.74 in 7.0 mi ENE 5.8 mph - N/A   Clear
12:55 AM 17.6 °F 9.3 °F 15.8 °F 93% 29.74 in 7.0 mi ENE 5.8 mph - N/A   Clear
1:15 AM 19.4 °F 11.5 °F 17.6 °F 93% 29.73 in 7.0 mi ENE 5.8 mph - N/A   Clear
1:35 AM 19.4 °F 11.5 °F 17.6 °F 93% 29.73 in 7.0 mi ENE 5.8 mph - N/A   Clear
1:55 AM 17.6 °F 10.7 °F 15.8 °F 93% 29.72 in 6.0 mi East 4.6 mph - N/A   Clear
2:15 AM 19.4 °F 9.5 °F 17.6 °F 93% 29.72 in 7.0 mi ENE 8.1 mph - N/A   Clear
2:35 AM 19.4 °F 9.5 °F 17.6 °F 93% 29.72 in 7.0 mi East 8.1 mph - N/A   Clear
2:55 AM 21.2 °F 10.9 °F 17.6 °F 86% 29.71 in 8.0 mi East 9.2 mph - N/A   Clear
3:15 AM 21.2 °F 11.7 °F 17.6 °F 86% 29.72 in 8.0 mi East 8.1 mph - N/A   Clear
3:35 AM 21.2 °F 12.6 °F 17.6 °F 86% 29.72 in 8.0 mi East 6.9 mph - N/A   Clear
3:55 AM 21.2 °F 12.6 °F 17.6 °F 86% 29.72 in 8.0 mi East 6.9 mph - N/A   Clear
4:15 AM 21.2 °F 12.6 °F 19.4 °F 93% 29.72 in 8.0 mi East 6.9 mph - N/A   Clear
4:35 AM 21.2 °F 13.6 °F 19.4 °F 93% 29.71 in 8.0 mi East 5.8 mph - N/A   Clear
4:55 AM 21.2 °F 13.6 °F 19.4 °F 93% 29.71 in 8.0 mi East 5.8 mph - N/A   Clear
5:15 AM 21.2 °F 14.9 °F 19.4 °F 93% 29.70 in 7.0 mi ENE 4.6 mph - N/A   Clear
5:35 AM 21.2 °F 13.6 °F 19.4 °F 93% 29.71 in 7.0 mi East 5.8 mph - N/A   Clear
5:55 AM 23.0 °F 17.0 °F 19.4 °F 86% 29.71 in 8.0 mi East 4.6 mph - N/A   Clear
6:15 AM 21.2 °F 13.6 °F 19.4 °F 93% 29.71 in 8.0 mi East 5.8 mph - N/A   Clear
6:35 AM 23.0 °F 14.7 °F 19.4 °F 86% 29.71 in 7.0 mi East 6.9 mph - N/A   Clear
6:55 AM 23.0 °F 17.0 °F 21.2 °F 93% 29.70 in 8.0 mi East 4.6 mph - N/A   Clear
7:15 AM 23.0 °F 18.4 °F 21.2 °F 93% 29.71 in 7.0 mi East 3.5 mph - N/A   Clear
7:35 AM 23.0 °F 15.8 °F 21.2 °F 93% 29.70 in 7.0 mi East 5.8 mph - N/A   Clear
7:55 AM - - - N/A% 29.69 in 7.0 mi ENE 3.5 mph - N/A   Clear
8:15 AM 24.8 °F 20.5 °F 21.2 °F 86% 29.69 in 5.0 mi NE 3.5 mph - N/A   Clear
8:35 AM - - - N/A% 29.67 in 5.0 mi NNE 3.5 mph - N/A   Scattered Clouds
8:55 AM - - - N/A% 29.66 in 5.0 mi Calm Calm - N/A   Partly Cloudy
9:15 AM - - - N/A% 29.66 in 5.0 mi North 3.5 mph - N/A   Clear
9:35 AM - - - N/A% 29.66 in 5.0 mi ENE 3.5 mph - N/A   Clear
9:55 AM - - - N/A% 29.66 in 5.0 mi ENE 3.5 mph - N/A   Clear
10:15 AM - - - N/A% 29.66 in 5.0 mi ENE 3.5 mph - N/A   Clear
10:35 AM - - - N/A% 29.67 in 5.0 mi Calm Calm - N/A   Clear
10:55 AM - - - N/A% 29.66 in 6.0 mi Calm Calm - N/A   Clear
11:15 AM - - - N/A% 29.66 in 6.0 mi Calm Calm - N/A   Clear
11:35 AM - - - N/A% 29.65 in 6.0 mi Calm Calm - N/A   Partly Cloudy
11:55 AM - - - N/A% 29.65 in 6.0 mi NNW 3.5 mph - N/A   Partly Cloudy
12:15 PM - - - N/A% 29.65 in 6.0 mi NW 5.8 mph - N/A   Clear
12:35 PM - - - N/A% 29.65 in 5.0 mi NW 8.1 mph - N/A   Clear
12:55 PM - - - N/A% 29.64 in 6.0 mi NW 8.1 mph - N/A   Partly Cloudy
1:15 PM - - - N/A% 29.63 in 6.0 mi NW 8.1 mph - N/A   Clear
1:35 PM - - - N/A% 29.63 in 7.0 mi NNW 10.4 mph - N/A   Clear
1:55 PM - - - N/A% 29.62 in 7.0 mi NW 11.5 mph - N/A   Clear
2:15 PM - - - N/A% 29.62 in 7.0 mi NW 10.4 mph - N/A   Clear
2:35 PM - - - N/A% 29.62 in 7.0 mi NW 9.2 mph - N/A   Clear
2:55 PM - - - N/A% 29.62 in 7.0 mi NW 10.4 mph - N/A   Clear
3:15 PM - - - N/A% 29.61 in 7.0 mi NW 8.1 mph - N/A   Clear
3:35 PM - - - N/A% 29.62 in 6.0 mi NW 10.4 mph - N/A   Clear
4:15 PM - - - N/A% 29.62 in 5.0 mi NW 10.4 mph - N/A   Clear
4:35 PM - - - N/A% 29.63 in 4.0 mi NW 9.2 mph - N/A   Partly Cloudy
4:55 PM - - - N/A% 29.64 in 5.0 mi WNW 11.5 mph - N/A   Clear
5:15 PM - - - N/A% 29.65 in 6.0 mi NW 10.4 mph - N/A   Clear
5:35 PM 15.8 °F 2.1 °F 14.0 °F 93% 29.66 in 6.0 mi NW 12.7 mph - N/A   Clear
5:55 PM 15.8 °F 2.7 °F 12.2 °F 86% 29.67 in 5.0 mi NW 11.5 mph - N/A   Partly Cloudy
6:15 PM 14.0 °F 2.0 °F 12.2 °F 93% 29.67 in 5.0 mi NW 9.2 mph - N/A   Mostly Cloudy
6:35 PM 14.0 °F 0.5 °F 12.2 °F 93% 29.67 in 4.0 mi NNW 11.5 mph - N/A   Overcast
6:55 PM 15.8 °F 4.2 °F 12.2 °F 86% 29.67 in 3.0 mi NW 9.2 mph - N/A   Overcast
7:15 PM 14.0 °F 1.2 °F 12.2 °F 93% 29.68 in 5.0 mi NW 10.4 mph - N/A   Overcast
7:35 PM 12.2 °F -0.2 °F 10.4 °F 92% 29.68 in 5.0 mi WNW 9.2 mph - N/A   Overcast
7:55 PM 12.2 °F -1.0 °F 10.4 °F 92% 29.69 in 5.0 mi NW 10.4 mph - N/A   Overcast
8:15 PM 12.2 °F -0.2 °F 12.2 °F 100% 29.69 in 5.0 mi NW 9.2 mph - N/A   Overcast
8:35 PM 12.2 °F -1.8 °F 10.4 °F 92% 29.69 in 4.0 mi NW 11.5 mph - N/A   Overcast
8:55 PM 12.2 °F -3.7 °F 10.4 °F 92% 29.70 in 5.0 mi NW 15.0 mph - N/A   Overcast
9:15 PM 12.2 °F -3.7 °F 10.4 °F 92% 29.71 in 5.0 mi NNW 15.0 mph - N/A   Overcast
9:35 PM 12.2 °F -3.7 °F 10.4 °F 92% 29.71 in 5.0 mi NNW 15.0 mph - N/A   Overcast
9:55 PM 12.2 °F -2.5 °F 10.4 °F 92% 29.71 in 4.0 mi NNW 12.7 mph - N/A   Overcast
10:15 PM 12.2 °F -1.8 °F 10.4 °F 92% 29.71 in 5.0 mi NNW 11.5 mph - N/A   Overcast
10:35 PM 12.2 °F -3.7 °F 10.4 °F 92% 29.71 in 5.0 mi NNW 15.0 mph - N/A   Overcast
10:55 PM 12.2 °F -3.7 °F 10.4 °F 92% 29.71 in 3.0 mi NNW 15.0 mph - N/A   Overcast
11:15 PM 12.2 °F -1.8 °F 10.4 °F 92% 29.71 in 3.0 mi NNW 11.5 mph - N/A   Overcast
11:35 PM 12.2 °F -3.7 °F 12.2 °F 100% 29.71 in 3.0 mi NNW 15.0 mph - N/A   Overcast
11:55 PM 14.0 °F 0.5 °F 12.2 °F 93% 29.72 in 3.0 mi NW 11.5 mph - N/A   Overcast